Regional Weather Roundup
Issued by NWS

Home | Current Version | Previous Version | Graphics & Text | Print | Product List | Glossary On
Versions: 1 2 3 4 5 6 7 8 9 10 11 12 13 14 15 16 17 18 19 20 21 22 23 24 25 26 27 28 29 30 31 32 33 34 35 36 37 38 39 40 41 42 43 44 45 46 47 48 49 50
000
ASUS43 KLMK 191710
RWRKY
KENTUCKY REGIONAL WEATHER ROUNDUP
NATIONAL WEATHER SERVICE LOUISVILLE KY
100 PM EDT SAT MAY 19 2018

NOTE "FAIR" INDICATES FEW OR NO CLOUDS BELOW 12,000 FEET
WITH NO SIGNIFICANT WEATHER AND/OR OBSTRUCTIONS TO VISIBILITY.

KYZ001>023-026-027-061>063-070>075-191800-
WESTERN AND SOUTH CENTRAL KENTUCKY

CITY           SKY/WX    TMP DP  RH WIND       PRES   REMARKS
PADUCAH        FAIR      83  69  62 SW12      29.96R
HENDERSON      NOT AVBL
OWENSBORO      PTSUNNY   77  68  73 W15       29.94F
HOPKINSVILLE   PTSUNNY   82  69  65 SW14      29.97R
BOWLING GREEN  FAIR      82  70  66 SW14G24   29.97S
GLASGOW        PTSUNNY   80  69  67 SW15      29.97S
$$

KYZ024-025-028>034-038-045-046-053-191800-
NORTH CENTRAL KENTUCKY

CITY           SKY/WX    TMP DP  RH WIND       PRES   REMARKS
LOUISVILLE/SDF PTSUNNY   77  66  68 SW14      29.94S
LOUISVILLE/LOU PTSUNNY   77  69  76 S12       29.95S
FORT KNOX      LGT RAIN  73  68  87 SW8       29.97S
$$

KYZ035>037-039>044-047>052-055>060-089>105-191800-
NORTHEAST KENTUCKY

CITY           SKY/WX    TMP DP  RH WIND       PRES   REMARKS
LEXINGTON      HVY RAIN  70  65  84 S5        29.97S
COVINGTON      HVY RAIN  72  66  81 W9        29.93S
FRANKFORT      HVY RAIN  70  65  84 SW7G16    29.95S VSB 3/4
$$

KYZ054-064>069-076>088-106>120-191800-
SOUTHEAST KENTUCKY

CITY           SKY/WX    TMP DP  RH WIND       PRES   REMARKS
JACKSON        CLOUDY    73  66  78 MISG      30.02F
LONDON         PTSUNNY   76  67  73 S10G20    30.01F
SOMERSET       FAIR      73  64  73 SW7       30.01S
MIDDLESBORO    PTSUNNY   76  67  74 S6        30.04F
MONTICELLO     PTSUNNY   77  68  73 SW10G21   30.02S
$$





USA.gov is the U.S. government's official web portal to all federal, state and local government web resources and services.